Location: Ciserano
(45.5833°N, 9.6000°E)
Time: 00:56:56
(UTC+00:00)

SJ 16-02 - Pass Details

Date: 19 April 2021
Orbit: 605 x 617 km, 75.0° (Epoch: 10 May)

Event Time Altitude Azimuth Distance (km) Brightness Sun altitude
Exits shadow 01:33:01 58° 343° (NNW) 724 1.7 -25.9°
Drops below altitude 10° 01:36:46 10° 15° (NNE) 1,987 4.8 -25.5°
Sets 01:39:02 0° 18° (NNE) 2,899 5.9 -25.3°
